Location: Calgary
(51.0833°N, 114.0833°W)
Time: 07:04:14
(UTC-07:00)

Amateur Radio Satellites - All Passes

Search period start: 18 November 2017 06:34
Search period end: 19 November 2017 06:34
Location: Calgary, 51.0833°N, 114.0833°W

Satellite Date Start Highest point End Downlink Frequencies (MHz)
Time Altitude Azimuth
XW-2B 18 Nov 06:35:34 06:39:17 49° 100° (E) 06:42:59 145.730 - 145.750
FO-29 18 Nov 06:38:46 06:44:21 28° 52° (NE) 06:50:23 435.910
SO-50 18 Nov 06:39:01 06:43:33 55° 42° (NE) 06:48:10 436.795
PCSat 18 Nov 06:44:18 06:47:27 15° 8° (N) 06:50:36 145.827
AO-85 18 Nov 06:50:35 06:54:28 58° 316° (NW) 06:58:37 145.980
HO-68 18 Nov 06:51:59 06:58:10 30° 92° (E) 07:04:19 435.675
YUBILEINY 18 Nov 06:52:03 07:00:50 87° 280° (W) 07:09:43 435.215
DOVE 4 18 Nov 06:52:59 06:57:46 35° 296° (WNW) 07:02:23 437.250
BEESAT 3 18 Nov 06:53:04 06:55:54 18° 336° (NNW) 06:58:42 437.485
LilacSat-2 18 Nov 06:58:30 07:02:20 85° 284° (WNW) 07:06:10 437.200
AO-7 18 Nov 06:59:45 07:06:10 26° 318° (NW) 07:12:36 .
XW-2C 18 Nov 07:00:55 07:04:43 85° 285° (WNW) 07:08:31 145.795 - 145.815
NUDT-PHONESAT 18 Nov 07:05:50 07:09:32 77° 102° (ESE) 07:13:15 437.300
UWE-3 18 Nov 07:13:06 07:14:52 12° 86° (E) 07:16:36 435.000/436.395/437.385
XW-2F 18 Nov 07:14:58 07:18:43 64° 286° (WNW) 07:22:27 145.980 - 146.000
CUTE 1.7 + AOD 2 18 Nov 07:23:08 07:27:12 42° 98° (E) 07:31:14 437.475
CUTE-I 18 Nov 07:35:15 07:40:38 71° 289° (WNW) 07:45:57 437.470
CUBEBUG 2 18 Nov 07:43:45 07:47:45 40° 97° (E) 07:51:40 437.445
STRAND 1 18 Nov 07:44:09 07:49:03 43° 262° (W) 07:53:59 437.568
RS-15 18 Nov 07:44:27 07:48:37 13° 271° (W) 07:52:44 29.354- 29.394
UNISAT 6 18 Nov 07:46:44 07:48:57 14° 55° (NE) 07:51:07 437.425
XW-2A 18 Nov 07:48:41 07:51:22 22° 94° (E) 07:54:02 145.665 - 145.685
KAITUO 1B 18 Nov 07:49:09 07:52:36 35° 291° (WNW) 07:56:01 145.475/437.950
TIGRISAT 18 Nov 07:51:57 07:54:15 14° 55° (NE) 07:56:31 435.000
XW-2D 18 Nov 07:55:29 07:58:33 24° 295° (WNW) 08:01:36 145.860 - 145.880
BEESAT 2 18 Nov 07:56:30 07:59:10 17° 339° (NNW) 08:01:51 435.950
SEEDS 18 Nov 08:00:19 08:04:32 63° 101° (E) 08:08:45 437.485
AO-73 18 Nov 08:03:28 08:06:28 19° 91° (E) 08:09:28 145.935
XW-2B 18 Nov 08:10:30 08:13:09 18° 298° (WNW) 08:15:48 145.730 - 145.750
AAUSAT CUBESAT 2 18 Nov 08:17:41 08:21:43 44° 98° (E) 08:25:43 437.432
SO-50 18 Nov 08:19:50 08:23:49 29° 242° (WSW) 08:27:49 436.795
FO-29 18 Nov 08:21:53 08:28:32 84° 254° (WSW) 08:36:04 435.910
Oscar 11 18 Nov 08:23:34 08:26:58 22° 92° (E) 08:30:21 .
PCSat 18 Nov 08:27:59 08:32:40 29° 33° (NNE) 08:37:21 145.827
AO-85 18 Nov 08:32:54 08:35:46 18° 340° (NNW) 08:38:45 145.980
BEESAT 3 18 Nov 08:33:33 08:34:56 11° 360° (N) 08:36:18 437.485
LilacSat-2 18 Nov 08:34:52 08:35:59 11° 303° (WNW) 08:37:04 437.200
XW-2C 18 Nov 08:37:13 08:38:16 11° 303° (WNW) 08:39:19 145.795 - 145.815
HO-68 18 Nov 08:39:19 08:46:29 69° 293° (WNW) 08:53:35 435.675
NUDT-PHONESAT 18 Nov 08:41:14 08:42:51 13° 302° (WNW) 08:44:29 437.300
ZACube-1 18 Nov 08:45:44 08:49:49 54° 100° (E) 08:53:52 437.345
UWE-3 18 Nov 08:47:44 08:51:56 80° 285° (WNW) 08:56:03 435.000/436.395/437.385
YUBILEINY 18 Nov 08:52:03 08:59:03 26° 305° (NW) 09:06:09 435.215
AO-7 18 Nov 08:54:01 08:56:05 11° 344° (NNW) 08:58:10 .
CUTE 1.7 + AOD 2 18 Nov 08:59:20 09:02:51 25° 296° (WNW) 09:06:21 437.475
CUTE-I 18 Nov 09:16:47 09:19:47 15° 310° (NW) 09:22:48 437.470
UNISAT 6 18 Nov 09:20:23 09:24:58 80° 75° (ENE) 09:29:28 437.425
DELFI C3 18 Nov 09:20:34 09:23:27 19° 91° (E) 09:26:19 145.870
CUBEBUG 2 18 Nov 09:20:44 09:24:13 25° 297° (WNW) 09:27:38 437.445
XW-2A 18 Nov 09:21:10 09:24:06 29° 292° (WNW) 09:27:02 145.665 - 145.685
TIGRISAT 18 Nov 09:25:41 09:30:16 83° 73° (ENE) 09:34:46 435.000
Max Valier Satellite 18 Nov 09:34:14 09:36:43 17° 91° (E) 09:39:12 145.860
BEESAT 2 18 Nov 09:36:54 09:38:29 12° 3° (N) 09:40:03 435.950
SEEDS 18 Nov 09:36:55 09:39:49 18° 300° (WNW) 09:42:43 437.485
AO-73 18 Nov 09:39:00 09:43:00 50° 289° (WNW) 09:47:00 145.935
EO-88 18 Nov 09:40:44 09:42:50 15° 90° (E) 09:44:56 145.990 - 145.960
PRISM 18 Nov 09:45:54 09:49:56 57° 71° (ENE) 09:54:02 437.425
EO-79 18 Nov 09:52:38 09:54:02 11° 54° (NE) 09:55:26 145.935-145.965
AAUSAT CUBESAT 2 18 Nov 09:53:35 09:56:56 24° 297° (WNW) 10:00:17 437.432
NANOSAT C BR1 18 Nov 09:58:07 09:59:32 12° 54° (NE) 10:00:57 145.865
Oscar 11 18 Nov 09:59:11 10:03:20 47° 290° (WNW) 10:07:29 .
POLYITAN 1 18 Nov 10:05:52 10:08:15 15° 57° (ENE) 10:10:37 437.675
FO-29 18 Nov 10:10:05 10:14:49 20° 278° (W) 10:19:55 435.910
BEESAT 3 18 Nov 10:11:13 10:13:59 18° 24° (NNE) 10:16:43 437.485
PCSat 18 Nov 10:11:13 10:16:40 81° 235° (SW) 10:22:05 145.827
AIST 2D 18 Nov 10:12:36 10:15:39 30° 68° (ENE) 10:18:44 435.315
AO-85 18 Nov 10:15:35 10:17:49 14° 5° (N) 10:20:08 145.980
ZACube-1 18 Nov 10:22:47 10:25:45 19° 299° (WNW) 10:28:43 437.345
UWE-3 18 Nov 10:26:09 10:27:40 12° 305° (NW) 10:29:12 435.000/436.395/437.385
QB50P2 18 Nov 10:27:37 10:31:01 24° 63° (ENE) 10:34:27 145.880/145.840
HO-68 18 Nov 10:28:07 10:33:03 20° 315° (NW) 10:37:59 435.675
ESTCUBE 1 18 Nov 10:43:36 10:44:11 10° 84° (E) 10:44:47 437.505/2401.250
AO-7 18 Nov 10:44:14 10:45:10 10° 12° (NNE) 10:46:07 .
DELFI C3 18 Nov 10:54:35 10:58:28 49° 289° (WNW) 11:02:19 145.870
BUGSAT 1 18 Nov 10:55:33 10:56:32 11° 54° (NE) 10:57:30 437.445
UNISAT 6 18 Nov 10:59:42 11:02:13 15° 272° (W) 11:04:44 437.425
TIGRISAT 18 Nov 11:05:07 11:07:31 14° 273° (W) 11:09:55 435.000
Max Valier Satellite 18 Nov 11:07:16 11:10:47 45° 290° (WNW) 11:14:17 145.860
Oscar 19 18 Nov 11:11:23 11:13:39 13° 50° (NE) 11:15:57 437.125/150
Gurwin Techsat 1B 18 Nov 11:12:01 11:13:14 11° 46° (NE) 11:14:27 435.225
EO-88 18 Nov 11:13:14 11:16:48 53° 288° (WNW) 11:20:22 145.990 - 145.960
BEESAT 2 18 Nov 11:14:34 11:17:40 20° 27° (NNE) 11:20:43 435.950
DUCHIFAT 1 18 Nov 11:21:43 11:25:49 54° 71° (ENE) 11:29:57 145.980
PRISM 18 Nov 11:22:48 11:25:34 17° 269° (W) 11:28:21 437.425
EO-79 18 Nov 11:24:48 11:29:02 73° 73° (ENE) 11:33:17 145.935-145.965
NANOSAT C BR1 18 Nov 11:30:17 11:34:30 74° 73° (ENE) 11:38:44 145.865
POLYITAN 1 18 Nov 11:39:12 11:43:27 83° 258° (WSW) 11:47:43 437.675
AIST 2D 18 Nov 11:46:03 11:48:51 23° 266° (W) 11:51:41 435.315
LO-87 18 Nov 11:48:03 11:51:33 53° 100° (E) 11:55:01 145.935 - 145.965
BEESAT 3 18 Nov 11:48:18 11:52:16 63° 45° (NE) 11:56:09 437.485
AO-85 18 Nov 11:56:00 11:59:41 25° 29° (NNE) 12:03:35 145.980
PCSat 18 Nov 11:56:06 11:59:14 16° 255° (WSW) 12:02:21 145.827
QB50P2 18 Nov 12:02:31 12:06:36 44° 261° (W) 12:10:41 145.880/145.840
ESTCUBE 1 18 Nov 12:17:15 12:21:48 75° 104° (ESE) 12:26:19 437.505/2401.250
BUGSAT 1 18 Nov 12:26:56 12:31:07 68° 72° (ENE) 12:35:17 437.445
AO-7 18 Nov 12:28:59 12:34:54 22° 39° (NE) 12:40:49 .
M-CUBED/EXP-1 PRIME 18 Nov 12:30:34 12:32:48 15° 50° (NE) 12:35:07 437.505
SPROUT 18 Nov 12:37:59 12:41:53 34° 96° (E) 12:45:44 437.525
Gurwin Techsat 1B 18 Nov 12:46:54 12:52:00 48° 66° (ENE) 12:57:06 435.225
Oscar 19 18 Nov 12:47:00 12:52:02 63° 70° (ENE) 12:57:07 437.125/150
BEESAT 2 18 Nov 12:51:55 12:56:00 80° 50° (NE) 13:00:00 435.950
VELOX 1 18 Nov 12:52:05 12:56:05 31° 96° (E) 13:00:03 145.980
DUCHIFAT 1 18 Nov 12:58:47 13:01:48 19° 269° (W) 13:04:50 145.980
EO-79 18 Nov 13:02:57 13:05:18 14° 272° (W) 13:07:39 145.935-145.965
NANOSAT C BR1 18 Nov 13:08:25 13:10:43 14° 272° (W) 13:13:00 145.865
POLYITAN 1 18 Nov 13:19:08 13:19:55 10° 274° (W) 13:20:43 437.675
LO-87 18 Nov 13:22:26 13:24:35 15° 299° (WNW) 13:26:43 145.935 - 145.965
BEESAT 3 18 Nov 13:26:35 13:29:24 19° 245° (WSW) 13:32:11 437.485
AO-85 18 Nov 13:36:04 13:40:38 90° 41° (NE) 13:45:34 145.980
DX 1 18 Nov 13:47:41 13:51:30 28° 95° (E) 13:55:17 434.975-435.025
ESTCUBE 1 18 Nov 13:55:05 13:58:05 18° 302° (WNW) 14:01:04 437.505/2401.250
M-CUBED/EXP-1 PRIME 18 Nov 14:03:09 14:06:40 70° 251° (WSW) 14:10:32 437.505
BUGSAT 1 18 Nov 14:04:28 14:06:55 15° 271° (W) 14:09:22 437.445
SPROUT 18 Nov 14:13:58 14:17:43 30° 295° (WNW) 14:21:26 437.525
AO-7 18 Nov 14:18:06 14:26:14 65° 62° (ENE) 14:34:26 .
Gurwin Techsat 1B 18 Nov 14:27:30 14:32:09 30° 266° (W) 14:36:50 435.225
Oscar 19 18 Nov 14:27:53 14:31:48 22° 269° (W) 14:35:44 437.125/150
VELOX 1 18 Nov 14:28:29 14:32:34 36° 294° (WNW) 14:36:36 145.980
50 SAT 18 Nov 14:29:51 14:33:07 88° 272° (W) 14:36:20 437.505
BEESAT 2 18 Nov 14:30:49 14:33:10 15° 247° (WSW) 14:35:32 435.950
O/OREOS (USA 219) 18 Nov 14:32:06 14:36:32 50° 111° (ESE) 14:41:00 437.305
ITAMSAT 1 18 Nov 14:32:48 14:37:42 42° 65° (ENE) 14:42:37 435.822/435.867
UKube-1 18 Nov 14:36:10 14:40:26 52° 101° (E) 14:44:39 .
DOVE 4 18 Nov 14:50:26 14:53:03 14° 51° (NE) 14:55:42 437.250
YUBILEINY 18 Nov 14:59:48 15:05:43 19° 48° (NE) 15:11:36 435.215
MOZHAYETS 4 18 Nov 15:09:06 15:12:55 26° 93° (E) 15:16:43
AO-85 18 Nov 15:17:32 15:20:33 17° 247° (WSW) 15:23:41 145.980
DX 1 18 Nov 15:23:41 15:27:47 38° 294° (WNW) 15:31:50 434.975-435.025
HO-68 18 Nov 15:43:54 15:46:38 12° 34° (NE) 15:49:21 435.675
CUTE-I 18 Nov 15:46:46 15:48:44 12° 47° (NE) 15:50:42 437.470
BEESAT 18 Nov 15:56:54 16:01:34 52° 100° (E) 16:06:12 436.000
ITUPSAT 1 18 Nov 16:04:30 16:09:13 60° 102° (ESE) 16:13:55 437.325
AO-7 18 Nov 16:12:00 16:19:30 37° 264° (W) 16:27:05 .
O/OREOS (USA 219) 18 Nov 16:12:12 16:16:12 28° 312° (NW) 16:20:11 437.305
ITAMSAT 1 18 Nov 16:12:32 16:17:16 34° 264° (W) 16:22:02 435.822/435.867
UKube-1 18 Nov 16:12:48 16:16:08 22° 300° (WNW) 16:19:27 .
LilacSat-2 18 Nov 16:13:22 16:14:52 12° 58° (ENE) 16:16:23 437.200
XW-2C 18 Nov 16:15:20 16:16:43 12° 57° (ENE) 16:18:05 145.795 - 145.815
DOVE 4 18 Nov 16:24:45 16:29:44 68° 72° (ENE) 16:34:59 437.250
XW-2F 18 Nov 16:28:05 16:30:09 14° 60° (ENE) 16:32:14 145.980 - 146.000
NO-84 18 Nov 16:34:30 16:37:36 24° 134° (SE) 16:40:52 435.350 FM
MOZHAYETS 4 18 Nov 16:45:55 16:50:16 44° 292° (WNW) 16:54:35
CUBESAT XI-V 18 Nov 16:49:07 16:53:44 58° 100° (E) 16:58:22 437.345
YUBILEINY 18 Nov 16:55:51 17:04:41 64° 74° (ENE) 17:13:26 435.215
KAITUO 1B 18 Nov 17:00:11 17:03:07 23° 65° (ENE) 17:06:05 145.475/437.950
XW-2D 18 Nov 17:06:47 17:10:13 36° 68° (ENE) 17:13:41 145.860 - 145.880
CUBEBUG 2 18 Nov 17:13:32 17:14:43 11° 53° (NE) 17:15:54 437.445
XW-2B 18 Nov 17:21:18 17:24:54 49° 71° (ENE) 17:28:32 145.730 - 145.750
CUTE-I 18 Nov 17:22:29 17:27:41 54° 67° (ENE) 17:32:55 437.470
KKS-1 18 Nov 17:22:35 17:26:36 31° 96° (E) 17:30:34 437.445
SEEDS 18 Nov 17:23:57 17:25:36 12° 55° (NE) 17:27:15 437.485
HO-68 18 Nov 17:25:57 17:32:29 39° 57° (ENE) 17:39:03 435.675
BEESAT 18 Nov 17:35:12 17:39:05 25° 300° (WNW) 17:42:56 436.000
ITUPSAT 1 18 Nov 17:42:59 17:46:41 23° 301° (WNW) 17:50:22 437.325
LilacSat-2 18 Nov 17:44:49 17:48:34 84° 257° (WSW) 17:52:21 437.200
XW-2C 18 Nov 17:46:34 17:50:18 86° 256° (WSW) 17:54:04 145.795 - 145.815
NUDT-PHONESAT 18 Nov 17:49:12 17:52:49 72° 73° (ENE) 17:56:28 437.300
RS-15 18 Nov 17:49:22 17:57:06 20° 95° (E) 18:04:47 29.354- 29.394
STARS 18 Nov 17:55:22 17:59:12 28° 95° (E) 18:02:59 437.465
XW-2F 18 Nov 18:00:08 18:03:49 65° 259° (W) 18:07:32 145.980 - 146.000
DOVE 4 18 Nov 18:04:08 18:07:56 21° 272° (W) 18:11:50 437.250
NO-84 18 Nov 18:10:35 18:14:32 89° 349° (N) 18:18:45 435.350 FM
ZACube-1 18 Nov 18:12:51 18:14:37 12° 56° (NE) 18:16:23 437.345
UWE-3 18 Nov 18:14:03 18:17:23 21° 62° (ENE) 18:20:40 435.000/436.395/437.385
CUTE 1.7 + AOD 2 18 Nov 18:20:17 18:24:23 55° 71° (ENE) 18:28:31 437.475
XW-2A 18 Nov 18:24:47 18:27:07 18° 64° (ENE) 18:29:27 145.665 - 145.685
CUBESAT XI-V 18 Nov 18:27:09 18:30:46 23° 300° (WNW) 18:34:23 437.345
KAITUO 1B 18 Nov 18:33:34 18:36:57 34° 263° (W) 18:40:22 145.475/437.950
XW-2D 18 Nov 18:41:33 18:44:30 22° 267° (W) 18:47:29 145.860 - 145.880
CUBEBUG 2 18 Nov 18:45:59 18:50:31 64° 72° (ENE) 18:54:56 437.445
YUBILEINY 18 Nov 18:53:14 19:01:02 37° 277° (W) 19:08:50 435.215
SEEDS 18 Nov 18:56:25 19:00:35 81° 76° (ENE) 19:04:48 437.485
XW-2B 18 Nov 18:56:55 18:59:21 16° 270° (W) 19:01:49 145.730 - 145.750
KKS-1 18 Nov 18:59:06 19:03:12 36° 295° (WNW) 19:07:15 437.445
AO-73 18 Nov 19:03:22 19:07:04 29° 65° (ENE) 19:10:43 145.935
CUTE-I 18 Nov 19:03:28 19:08:01 28° 267° (W) 19:12:36 437.470
AAUSAT CUBESAT 2 18 Nov 19:12:10 19:16:12 55° 71° (ENE) 19:20:16 437.432
HO-68 18 Nov 19:12:58 19:20:01 57° 258° (WSW) 19:27:08 435.675
Oscar 11 18 Nov 19:22:56 19:26:43 32° 66° (ENE) 19:30:33 .
NUDT-PHONESAT 18 Nov 19:25:59 19:27:08 11° 273° (W) 19:28:18 437.300
FO-29 18 Nov 19:27:13 19:31:43 16° 79° (E) 19:36:08 435.910
STARS 18 Nov 19:31:32 19:35:37 38° 294° (WNW) 19:39:41 437.465
ZACube-1 18 Nov 19:45:54 19:50:15 80° 72° (ENE) 19:54:30 437.345
NO-84 18 Nov 19:48:14 19:52:13 49° 356° (N) 19:56:22 435.350 FM
STRAND 1 18 Nov 19:49:03 19:53:58 44° 98° (E) 19:58:49 437.568
UWE-3 18 Nov 19:49:09 19:53:32 55° 259° (W) 19:57:50 435.000/436.395/437.385
RS-15 18 Nov 19:55:03 20:07:08 65° 120° (ESE) 20:19:05 29.354- 29.394
XW-2A 18 Nov 19:56:29 19:59:36 37° 262° (W) 20:02:43 145.665 - 145.685
CUTE 1.7 + AOD 2 18 Nov 19:57:39 20:00:34 18° 270° (W) 20:03:30 437.475
DELFI C3 18 Nov 20:10:27 20:13:33 22° 63° (ENE) 20:16:39 145.870
Max Valier Satellite 18 Nov 20:17:58 20:20:26 18° 62° (ENE) 20:22:55 145.860
EO-88 18 Nov 20:23:21 20:25:27 15° 60° (ENE) 20:27:34 145.990 - 145.960
CUBEBUG 2 18 Nov 20:24:21 20:27:31 18° 270° (W) 20:30:38 437.445
SEEDS 18 Nov 20:35:02 20:36:51 13° 274° (W) 20:38:41 437.485
AO-73 18 Nov 20:39:15 20:43:14 35° 264° (W) 20:47:08 145.935
AAUSAT CUBESAT 2 18 Nov 20:49:09 20:51:59 18° 270° (W) 20:54:51 437.432
Oscar 11 18 Nov 20:58:58 21:02:50 33° 264° (W) 21:06:45 .
HO-68 18 Nov 21:07:00 21:09:24 12° 280° (W) 21:11:48 435.675
UNISAT 6 18 Nov 21:09:07 21:10:23 11° 85° (E) 21:11:38 437.425
FO-29 18 Nov 21:10:24 21:18:15 65° 100° (E) 21:25:51 435.910
TIGRISAT 18 Nov 21:14:07 21:15:33 11° 86° (E) 21:16:58 435.000
ZACube-1 18 Nov 21:24:59 21:27:04 13° 273° (W) 21:29:08 437.345
NO-84 18 Nov 21:25:51 21:30:01 63° 17° (NNE) 21:34:16 435.350 FM
STRAND 1 18 Nov 21:28:29 21:33:01 32° 298° (WNW) 21:37:32 437.568
DELFI C3 18 Nov 21:44:17 21:48:03 43° 262° (W) 21:51:53 145.870
ESTCUBE 1 18 Nov 21:46:26 21:49:34 19° 58° (ENE) 21:52:44 437.505/2401.250
Max Valier Satellite 18 Nov 21:50:25 21:53:57 48° 260° (W) 21:57:31 145.860
EO-88 18 Nov 21:55:08 21:58:41 58° 259° (W) 22:02:17 145.990 - 145.960
RS-15 18 Nov 22:07:54 22:20:06 60° 327° (NNW) 22:32:03 29.354- 29.394
LO-87 18 Nov 22:28:19 22:31:48 47° 71° (ENE) 22:35:17 145.935 - 145.965
SO-50 18 Nov 22:38:39 22:42:22 26° 117° (ESE) 22:46:09 436.795
UNISAT 6 18 Nov 22:43:28 22:47:49 88° 107° (ESE) 22:52:05 437.425
TIGRISAT 18 Nov 22:48:36 22:52:56 90° 198° (SSW) 22:57:11 435.000
nSIGHT-1 18 Nov 22:52:06 22:54:54 28° 148° (SSE) 22:57:43 .
FO-29 18 Nov 22:55:48 23:02:53 39° 302° (WNW) 23:09:51 435.910
PRISM 18 Nov 22:57:01 23:01:03 45° 99° (E) 23:05:03 437.425
O/OREOS (USA 219) 18 Nov 22:57:52 23:02:07 36° 52° (NE) 23:06:18 437.305
NO-84 18 Nov 23:03:18 23:07:23 47° 216° (SW) 23:11:28 435.350 FM
AIST 2D 18 Nov 23:05:26 23:07:59 19° 92° (E) 23:10:31 435.315
POLYITAN 1 18 Nov 23:20:51 23:22:11 11° 86° (E) 23:23:33 437.675
ESTCUBE 1 18 Nov 23:21:29 23:25:56 67° 258° (WSW) 23:30:25 437.505/2401.250
ISS 18 Nov 23:27:09 23:30:14 40° 153° (SSE) 23:33:20 437.550
SPROUT 18 Nov 23:35:37 23:39:45 49° 70° (ENE) 23:43:55 437.525
QB50P2 18 Nov 23:42:29 23:45:40 20° 92° (E) 23:48:49 145.880/145.840
VELOX 1 18 Nov 23:53:43 23:58:01 52° 69° (ENE) 00:02:22 145.980
UKube-1 19 Nov 00:01:51 00:04:02 14° 54° (NE) 00:06:12 .
LO-87 19 Nov 00:03:08 00:05:27 16° 269° (W) 00:07:47 145.935 - 145.965
SO-50 19 Nov 00:18:09 00:22:33 56° 317° (NW) 00:27:03 436.795
UNISAT 6 19 Nov 00:21:37 00:23:54 14° 304° (NW) 00:26:10 437.425
RS-15 19 Nov 00:23:56 00:35:28 43° 360° (N) 00:46:34 29.354- 29.394
TIGRISAT 19 Nov 00:26:48 00:28:59 14° 304° (NW) 00:31:08 435.000
nSIGHT-1 19 Nov 00:27:41 00:30:54 85° 167° (SSE) 00:34:07 .
PRISM 19 Nov 00:32:46 00:36:05 23° 298° (WNW) 00:39:24 437.425
DUCHIFAT 1 19 Nov 00:35:52 00:39:56 47° 99° (E) 00:43:57 145.980
O/OREOS (USA 219) 19 Nov 00:37:22 00:41:31 35° 252° (WSW) 00:45:38 437.305
AIST 2D 19 Nov 00:38:01 00:41:19 38° 290° (WNW) 00:44:35 435.315
EO-79 19 Nov 00:39:49 00:44:01 66° 102° (ESE) 00:48:11 145.935-145.965
FO-29 19 Nov 00:42:43 00:45:51 13° 324° (NW) 00:49:01 435.910
NO-84 19 Nov 00:42:57 00:43:56 11° 235° (SW) 00:44:53 435.350 FM
NANOSAT C BR1 19 Nov 00:44:52 00:49:03 66° 102° (ESE) 00:53:11 145.865
DX 1 19 Nov 00:47:37 00:51:49 47° 68° (ENE) 00:56:02 434.975-435.025
POLYITAN 1 19 Nov 00:54:24 00:58:37 89° 288° (WNW) 01:02:48 437.675
Oscar 19 19 Nov 00:54:34 00:57:26 15° 87° (E) 01:00:18 437.125/150
PCSat 19 Nov 00:58:12 01:02:56 32° 113° (ESE) 01:07:41 145.827
Gurwin Techsat 1B 19 Nov 00:59:39 01:01:48 12° 84° (E) 01:03:57 435.225
50 SAT 19 Nov 01:01:19 01:04:31 65° 74° (ENE) 01:07:45 437.505
ISS 19 Nov 01:03:19 01:06:36 84° 355° (N) 01:09:53 437.550
SPROUT 19 Nov 01:12:38 01:15:55 21° 268° (W) 01:19:12 437.525
QB50P2 19 Nov 01:17:38 01:21:43 49° 290° (WNW) 01:25:45 145.880/145.840
VELOX 1 19 Nov 01:31:20 01:34:45 22° 268° (W) 01:38:12 145.980
BEESAT 19 Nov 01:32:19 01:35:36 19° 56° (NE) 01:38:52 436.000
UKube-1 19 Nov 01:35:04 01:39:23 86° 74° (ENE) 01:43:45 .
BUGSAT 1 19 Nov 01:38:45 01:42:45 56° 101° (E) 01:46:42 437.445
ITUPSAT 1 19 Nov 01:39:56 01:43:27 21° 58° (ENE) 01:46:59 437.325
SO-50 19 Nov 02:00:37 02:03:56 20° 340° (NNW) 02:07:18 436.795
nSIGHT-1 19 Nov 02:03:59 02:07:11 84° 3° (N) 02:10:24 .
DUCHIFAT 1 19 Nov 02:12:05 02:15:20 22° 298° (WNW) 02:18:34 145.980
MOZHAYETS 4 19 Nov 02:15:30 02:19:49 44° 68° (ENE) 02:24:10
AO-7 19 Nov 02:16:14 02:19:49 13° 81° (E) 02:23:24 .
EO-79 19 Nov 02:16:34 02:19:20 17° 301° (WNW) 02:22:06 145.935-145.965
NANOSAT C BR1 19 Nov 02:21:33 02:24:18 17° 301° (WNW) 02:27:02 145.865
CUBESAT XI-V 19 Nov 02:22:05 02:24:56 16° 56° (ENE) 02:27:48 437.345
DX 1 19 Nov 02:24:43 02:28:12 23° 267° (W) 02:31:45 434.975-435.025
POLYITAN 1 19 Nov 02:31:43 02:33:46 13° 304° (NW) 02:35:48 437.675
Oscar 19 19 Nov 02:32:19 02:37:30 89° 104° (ESE) 02:42:41 437.125/150
Gurwin Techsat 1B 19 Nov 02:37:21 02:42:42 73° 103° (ESE) 02:48:01 435.225
RS-15 19 Nov 02:38:49 02:50:48 59° 32° (NNE) 03:02:09 29.354- 29.394
ISS 19 Nov 02:39:52 02:43:08 84° 198° (SSW) 02:46:24 437.550
PCSat 19 Nov 02:40:46 02:46:06 56° 313° (NW) 02:51:28 145.827
BEESAT 19 Nov 03:08:03 03:12:50 78° 256° (WSW) 03:17:38 436.000
M-CUBED/EXP-1 PRIME 19 Nov 03:09:50 03:14:01 39° 104° (ESE) 03:18:19 437.505
UKube-1 19 Nov 03:14:07 03:16:01 13° 273° (W) 03:17:55 .
BUGSAT 1 19 Nov 03:14:54 03:17:45 19° 300° (WNW) 03:20:34 437.445
ITUPSAT 1 19 Nov 03:16:04 03:20:50 68° 257° (WSW) 03:25:37 437.325
BEESAT 3 19 Nov 03:20:11 03:23:01 19° 115° (ESE) 03:25:52 437.485
nSIGHT-1 19 Nov 03:40:17 03:43:19 39° 207° (SSW) 03:46:18 .
SO-50 19 Nov 03:43:19 03:46:03 15° 5° (N) 03:48:47 436.795
MOZHAYETS 4 19 Nov 03:53:20 03:57:10 26° 267° (W) 04:01:00
CUBESAT XI-V 19 Nov 03:57:07 04:01:43 83° 254° (WSW) 04:06:22 437.345
AO-7 19 Nov 04:06:17 04:14:31 58° 103° (ESE) 04:22:42 .
YUBILEINY 19 Nov 04:12:27 04:16:34 14° 68° (ENE) 04:20:42 435.215
Oscar 19 19 Nov 04:12:46 04:16:11 18° 306° (NW) 04:19:37 437.125/150
ISS 19 Nov 04:16:31 04:19:22 27° 212° (SSW) 04:22:11 437.550
Gurwin Techsat 1B 19 Nov 04:18:07 04:22:09 22° 304° (WNW) 04:26:11 435.225
ITAMSAT 1 19 Nov 04:19:21 04:24:31 57° 102° (ESE) 04:29:38 435.822/435.867
DOVE 4 19 Nov 04:19:49 04:22:48 15° 84° (E) 04:25:44 437.250
KKS-1 19 Nov 04:25:04 04:29:26 54° 69° (ENE) 04:33:50 437.445
BEESAT 2 19 Nov 04:25:05 04:28:24 25° 117° (ESE) 04:31:46 435.950
PCSat 19 Nov 04:26:41 04:30:40 20° 337° (NNW) 04:34:40 145.827
M-CUBED/EXP-1 PRIME 19 Nov 04:44:22 04:48:18 33° 301° (WNW) 04:52:24 437.505
BEESAT 19 Nov 04:49:50 04:51:25 11° 275° (W) 04:53:00 436.000
RS-15 19 Nov 04:51:57 05:03:39 64° 241° (WSW) 05:14:44 29.354- 29.394
BEESAT 3 19 Nov 04:56:11 05:00:10 65° 315° (NW) 05:04:10 437.485
STARS 19 Nov 04:56:18 05:00:34 48° 68° (ENE) 05:04:51 437.465
SO-50 19 Nov 05:24:00 05:27:57 27° 29° (NNE) 05:31:56 436.795
STRAND 1 19 Nov 05:32:47 05:36:26 20° 55° (NE) 05:40:05 437.568
AO-85 19 Nov 05:35:29 05:39:13 46° 124° (ESE) 05:43:11 145.980
CUTE-I 19 Nov 05:35:40 05:38:26 14° 85° (E) 05:41:12 437.470
CUBESAT XI-V 19 Nov 05:38:11 05:39:51 12° 275° (W) 05:41:31 437.345
FO-29 19 Nov 05:46:38 05:50:29 15° 40° (NE) 05:54:30 435.910
DOVE 4 19 Nov 05:55:57 06:01:16 88° 102° (ESE) 06:06:22 437.250
ITAMSAT 1 19 Nov 05:59:21 06:03:40 27° 301° (WNW) 06:07:58 435.822/435.867
AO-7 19 Nov 05:59:23 06:07:08 45° 305° (NW) 06:14:54 .
KAITUO 1B 19 Nov 05:59:48 06:02:13 16° 90° (E) 06:04:36 145.475/437.950
BEESAT 2 19 Nov 06:01:57 06:05:54 51° 318° (NW) 06:09:53 435.950
YUBILEINY 19 Nov 06:02:53 06:11:23 60° 92° (E) 06:19:59 435.215
KKS-1 19 Nov 06:02:55 06:06:18 21° 268° (W) 06:09:43 437.445
XW-2D 19 Nov 06:07:58 06:11:14 26° 95° (E) 06:14:28 145.860 - 145.880
PCSat 19 Nov 06:13:09 06:16:11 15° 3° (N) 06:19:13 145.827
XW-2B 19 Nov 06:22:32 06:26:04 35° 97° (E) 06:29:35 145.730 - 145.750
